| time (UTC) | temp C | wind direction | speed KPH | gust KPH | rain 1hr cm | rain 24hr cm | rain mn cm | humidity % | barometer mb |
| 20260503173043 | 12 | 333 | 6.4 | 19.3 | 0.00 | 0.00 | 0.00 | 42 | 1013.4 |
| 20260503171515 | 11 | 190 | 6.4 | 29.0 | 0.00 | 0.00 | 0.00 | 44 | 1013.3 |
| 20260503071515 | 6 | 320 | 0.0 | 0.0 | 0.00 | 0.00 | 0.00 | 69 | 1011.0 |
| 20260503054524 | 8 | 320 | 0.0 | 3.2 | 0.00 | 0.00 | 0.00 | 62 | 1011.4 |
| 20260503053035 | 8 | 319 | 0.0 | 0.0 | 0.00 | 0.00 | 0.00 | 61 | 1011.6 |
| 20260503051515 | 8 | 319 | 0.0 | 1.6 | 0.00 | 0.00 | 0.00 | 59 | 1011.6 |
| 20260503050022 | 8 | 319 | 0.0 | 0.0 | 0.00 | 0.00 | 0.00 | 58 | 1011.7 |
| 20260503044559 | 9 | 322 | 0.0 | 3.2 | 0.00 | 0.00 | 0.00 | 57 | 1011.8 |
| 20260503043011 | 9 | 299 | 0.0 | 4.8 | 0.00 | 0.00 | 0.00 | 56 | 1011.9 |
| 20260503041518 | 9 | 303 | 0.0 | 6.4 | 0.00 | 0.00 | 0.00 | 55 | 1011.9 |
| 20260503040021 | 9 | 296 | 0.0 | 3.2 | 0.00 | 0.00 | 0.00 | 55 | 1011.9 |
| 20260503034529 | 10 | 311 | 0.0 | 6.4 | 0.00 | 0.00 | 0.00 | 55 | 1011.9 |
| 20260503031521 | 10 | 311 | 0.0 | 3.2 | 0.00 | 0.00 | 0.00 | 53 | 1011.8 |
| 20260503030031 | 10 | 11 | 0.0 | 3.2 | 0.00 | 0.00 | 0.00 | 52 | 1011.9 |
| 20260503023014 | 10 | 277 | 0.0 | 3.2 | 0.00 | 0.00 | 0.00 | 50 | 1012.1 |
| 20260503021520 | 11 | 317 | 0.0 | 4.8 | 0.00 | 0.00 | 0.00 | 49 | 1012.2 |
| 20260503020033 | 11 | 297 | 1.6 | 12.9 | 0.00 | 0.00 | 0.00 | 47 | 1012.1 |
| 20260503014528 | 11 | 290 | 1.6 | 4.8 | 0.00 | 0.00 | 0.00 | 48 | 1011.9 |
| 20260503013018 | 11 | 292 | 0.0 | 3.2 | 0.00 | 0.00 | 0.00 | 47 | 1012.0 |
| 20260503011521 | 11 | 294 | 0.0 | 8.0 | 0.00 | 0.00 | 0.00 | 46 | 1011.8 |
| 20260503010026 | 11 | 306 | 0.0 | 9.7 | 0.00 | 0.00 | 0.00 | 45 | 1011.8 |
| 20260503004527 | 12 | 11 | 1.6 | 4.8 | 0.00 | 0.00 | 0.00 | 44 | 1011.6 |
| 20260503003028 | 12 | 293 | 0.0 | 8.0 | 0.00 | 0.00 | 0.00 | 43 | 1011.4 |
| 20260503001525 | 12 | 167 | 1.6 | 8.0 | 0.00 | 0.00 | 0.00 | 41 | 1011.3 |
| 20260503000030 | 12 | 340 | 3.2 | 12.9 | 0.00 | 0.00 | 0.00 | 41 | 1011.2 |
| 20260502234546 | 12 | 265 | 1.6 | 8.0 | 0.00 | 0.00 | 0.00 | 43 | 1011.1 |
| 20260502233021 | 13 | 277 | 1.6 | 16.1 | 0.00 | 0.00 | 0.00 | 43 | 1010.9 |
| 20260502231530 | 13 | 69 | 1.6 | 11.3 | 0.00 | 0.00 | 0.00 | 41 | 1011.0 |
| 20260502230029 | 13 | 42 | 3.2 | 16.1 | 0.00 | 0.00 | 0.00 | 38 | 1011.1 |
| 20260502224525 | 14 | 273 | 3.2 | 12.9 | 0.00 | 0.00 | 0.00 | 39 | 1010.9 |
| 20260502223035 | 15 | 320 | 6.4 | 14.5 | 0.00 | 0.00 | 0.00 | 38 | 1010.8 |
| 20260502221523 | 15 | 338 | 3.2 | 12.9 | 0.00 | 0.00 | 0.00 | 37 | 1010.7 |
| 20260502220028 | 15 | 300 | 1.6 | 9.7 | 0.00 | 0.00 | 0.00 | 39 | 1010.6 |
| 20260502214525 | 15 | 300 | 1.6 | 6.4 | 0.00 | 0.00 | 0.00 | 38 | 1010.8 |
| 20260502213022 | 15 | 338 | 4.8 | 12.9 | 0.00 | 0.00 | 0.00 | 40 | 1010.7 |
| 20260502211533 | 15 | 16 | 1.6 | 8.0 | 0.00 | 0.00 | 0.00 | 41 | 1010.6 |
| 20260502210024 | 15 | 360 | 4.8 | 11.3 | 0.00 | 0.00 | 0.00 | 39 | 1010.3 |
| 20260502204536 | 15 | 30 | 1.6 | 11.3 | 0.00 | 0.00 | 0.00 | 39 | 1010.3 |
| 20260502203018 | 15 | 319 | 4.8 | 14.5 | 0.00 | 0.00 | 0.00 | 40 | 1010.5 |
| 20260502201514 | 15 | 274 | 3.2 | 11.3 | 0.00 | 0.00 | 0.00 | 41 | 1010.6 |
| 20260502200016 | 15 | 289 | 3.2 | 17.7 | 0.00 | 0.00 | 0.00 | 41 | 1010.8 |
| 20260502191516 | 15 | 340 | 6.4 | 19.3 | 0.00 | 0.00 | 0.00 | 41 | 1011.6 |
| 20260502190019 | 15 | 258 | 6.4 | 12.9 | 0.00 | 0.00 | 0.00 | 42 | 1011.7 |
| 20260502184515 | 15 | 304 | 6.4 | 14.5 | 0.00 | 0.00 | 0.00 | 42 | 1011.9 |